Location: Unspecified
(0.0000°N, 0.0000°E)
Time: 00:06:57
(UTC+00:00)

Envisat - Pass Details

Date: 18 January 2022
Orbit: 764 x 766 km, 98.2° (Epoch: 27 January)

Event Time Altitude Azimuth Distance (km) Brightness Sun altitude
Rises 04:28:54 0° 11° (NNE) 3,212 6.1 -23.6°
Reaches altitude 10° 04:31:11 10° 11° (NNE) 2,289 5.3 -23.1°
Maximum altitude 04:36:14 89° 286° (WNW) 768 2.9 -21.9°
Drops below altitude 10° 04:41:19 10° 192° (SSW) 2,300 5.6 -20.8°
Sets 04:43:38 0° 192° (SSW) 3,228 6.4 -20.2°
